SCP
0 0 0 0 0 0 0 0 0 0 0 0 0 0 0 0 0 0 0 0 0 0 0 0 0 0 0 0 0 0 0 0 0 0 0 0 0 0 0 0 0 0 0 0
0 0 0 0 0 0 0 0 0 0 0 0 0 0 0 0 0 0 0 0 0 0 0 0 0 0 0 0 0 0 0 0 0 0 0 0 0 0 0 0 0 0 0 0
0 0 0 0 0 0 0 0 0 0 0 0 0 0 0 0 0 0 0 0 0 0 0 0 0 0 0 0 0 0 0 0 0 0 0 0 0 0 0 0 0 0 0 0
0 0 0 0 0 0 0 0 0 0 0 0 0 0 0 0 0 0 0 0 0 0 0 0 0 0 0 0 0 0 0 0 0 0 0 0 0 0 0 0 0 0 0 0
0 0 0 0 0 0 0 0 0 0 0 0 0 0 0 0 0 0 0 0 0 0 0 0 0 0 0 0 0 0 0 0 0 0 0 0 0 0 0 0 0 0 0 0
0 0 0 0 0 0 0 0 0 0 0 0 0 0 0 0 0 0 0 0 0 0 0 0 0 0 0 0 0 0 0 0 0 0 0 0 0 0 0 0 0 0 0 0
0 0 0 0 0 0 0 0 0 0 0 0 0 0 0 0 0 0 0 0 0 0 0 0 0 0 0 0 0 0 0 0 0 0 0 0 0 0 0 0 0 0 0 0
0 0 0 0 0 0 0 0 0 0 0 0 0 0 0 0 0 0 0 0 0 0 0 0 0 0 0 0 0 0 0 0 0 0 0 0 0 0 0 0 0 0 0 0
0 0 0 0 0 0 0 0 0 0 0 0 0 0 0 0 0 0 0 0 0 0 0 0 0 0 0 0 0 0 0 0 0 0 0 0 0 0 0 0 0 0 0 0
0 0 0 0 0 0 0 0 0 0 0 0 0 0 0 0 0 0 0 0 0 0 0 0 0 0 0 0 0 0 0 0 0 0 0 0 0 0 0 0 0 0 0 0
0 0 0 0 0 0 0 0 0 0 0 0 0 0 0 0 0 0 0 0 0 0 0 0 0 0 0 0 0 0 0 0 0 0 0 0 0 0 0 0 0 0 0 0
0 0 0 0 0 0 0 0 0 0 0 0 0 0 0 0 0 0 0 0 0 0 0 0 0 0 0 0 0 0 0 0 0 0 0 0 0 0 0 0 0 0 0 0
0 0 0 0 0 0 0 0 0 0 0 0 0 0 0 0 0 0 0 0 0 0 0 0 0 0 0 0 0 0 0 0 0 0 0 0 0 0 0 0 0 0 0 0
0 0 0 0 0 0 0 0 0 0 0 0 0 0 0 0 0 0 0 0 0 0 0 0 0 0 0 0 0 0 0 0 0 0 0 0 0 0 0 0 0 0 0 0
0 0 0 0 0 0 0 0 0 0 0 0 0 0 0 0 0 0 0 0 0 0 0 0 0 0 0 0 0 0 0 0 0 0 0 0 0 0 0 0 0 0 0 0
0 0 0 0 0 0 0 0 0 0 0 0 0 0 0 0 0 0 0 0 0 0 0 0 0 0 0 0 0 0 0 0 0 0 0 0 0 0 0 0 0 0 0 0
0 0 0 0 0 0 0 0 0 0 0 0 0 0 0 0 0 0 0 0 0 0 0 0 0 0 0 0 0 0 0 0 0 0 0 0 0 0 0 0 0 0 0 0
0 0 0 0 0 0 0 0 0 0 0 0 0 0 0 0 0 0 0 0 0 0 0 0 0 0 0 0 0 0 0 0 0 0 0 0 0 0 0 0 0 0 0 0
0 0 0 0 0 0 0 0 0 0 0 0 0 0 0 0 0 0 0 0 0 0 0 0 0 0 0 0 0 0 0 0 0 0 0 0 0 0 0 0 0 0 0 0
0 0 0 0 0 0 0 0 0 0 0 0 0 0 0 0 0 0 0 0 0 0 0 0 0 0 0 0 0 0 0 0 0 0 0 0 0 0 0 0 0 0 0 0
0 0 0 0 0 0 0 0 0 0 0 0 0 0 0 0 0 0 0 0 0 0 0 0 0 0 0 0 0 0 0 0 0 0 0 0 0 0 0 0 0 0 0 0
0 0 0 0 0 0 0 0 0 0 0 0 0 0 0 0 0 0 0 0 0 0 0 0 0 0 0 0 0 0 0 0 0 0 0 0 0 0 0 0 0 0 0 0
0 0 0 0 0 0 0 0 0 0 0 0 0 0 0 0 0 0 0 0 0 0 0 0 0 0 0 0 0 0 0 0 0 0 0 0 0 0 0 0 0 0 0 0
0 0 0 0 0 0 0 0 0 0 0 0 0 0 0 0 0 0 0 0 0 0 0 0 0 0 0 0 0 0 0 0 0 0 0 0 0 0 0 0 0 0 0 0
0 0 0 0 0 0 0 0 0 0 0 0 0 0 0 0 0 0 0 0 0 0 0 0 0 0 0 0 0 0 0 0 0 0 0 0 0 0 0 0 0 0 0 0
0 0 0 0 0 0 0 0 0 0 0 0 0 0 0 0 0 0 0 0 0 0 0 0 0 0 0 0 0 0 0 0 0 0 0 0 0 0 0 0 0 0 0 0
0 0 0 0 0 0 0 0 0 0 0 0 0 0 0 0 0 0 0 0 0 0 0 0 0 0 0 0 0 0 0 0 0 0 0 0 0 0 0 0 0 0 0 0
Wind_Speed
6 5 4 7 9 8 10 10 11 10 9 10 6 3 2 1 2 3 4 4 5 5 6 6 6 6 6 6 7 6 7 8 8 9 8 8 9 9 9 9 10 10 10 11
3 5 5 9 13 12 11 10 10 10 10 3 2 3 2 2 2 3 4 5 6 7 7 7 7 7 6 7 7 7 7 9 9 9 9 9 9 9 9 10 10 10 10 11
4 4 7 10 10 7 6 6 8 8 5 3 3 2 1 1 1 2 5 6 7 7 7 7 7 6 6 7 7 8 8 9 10 10 10 10 10 10 10 10 10 10 10 11
2 1 9 10 3 3 3 1 1 4 4 3 2 2 2 3 1 4 6 6 6 6 6 6 5 6 7 7 8 9 9 10 10 10 10 11 10 11 11 10 9 10 11 11
4 4 10 10 5 2 3 1 1 5 3 1 2 1 3 3 2 4 5 5 5 5 5 6 7 7 7 8 9 9 10 10 10 10 11 12 12 12 11 10 10 10 10 11
5 5 9 8 3 1 3 2 2 4 3 1 1 3 5 4 4 5 6 5 5 5 5 7 8 7 8 10 10 11 11 11 10 10 11 13 13 12 11 10 11 10 11 11
6 6 11 8 4 2 3 5 2 3 2 2 3 6 6 5 5 5 5 6 6 6 7 8 8 8 9 10 11 12 11 11 11 11 11 13 12 11 11 11 11 11 12 11
6 6 12 4 3 4 5 2 3 2 2 4 6 7 6 6 6 6 6 6 6 6 8 8 8 9 11 12 13 12 12 12 12 11 10 10 12 12 11 11 11 11 11 11
10 10 3 2 4 3 4 3 3 3 4 5 6 5 5 5 6 6 6 7 6 7 9 9 8 8 12 15 14 13 13 12 12 12 10 10 11 12 11 9 9 10 9 10
5 6 2 4 4 2 2 3 4 4 5 4 5 5 6 6 6 6 7 7 7 8 10 12 10 9 11 14 14 13 14 13 11 12 11 10 8 9 10 9 10 10 10 10
5 3 2 3 4 4 4 3 3 2 3 3 4 5 5 5 7 7 7 7 7 8 11 14 13 12 11 11 12 13 13 12 11 10 11 11 9 9 11 10 12 14 10 10
6 5 4 4 3 3 2 1 2 2 3 3 3 5 6 6 6 7 8 8 9 10 12 14 13 13 12 11 10 12 13 12 9 9 9 9 10 11 16 18 23 24 22 19
3 2 4 3 2 1 1 2 3 3 4 5 5 5 6 6 6 7 9 10 11 12 12 13 14 14 13 11 10 11 13 13 10 9 9 10 11 12 13 14 18 21 22 22
2 3 2 2 2 2 2 3 3 3 4 5 5 6 7 7 8 9 11 12 12 12 13 13 14 14 13 11 11 12 12 14 14 10 10 10 11 11 11 12 13 11 13 19
2 3 3 2 1 2 2 2 3 5 6 6 6 7 8 9 11 12 12 11 11 12 13 13 14 14 12 11 12 12 11 9 9 9 10 10 10 11 11 12 12 12 10 12
1 1 1 1 2 3 3 3 4 6 7 7 8 9 10 10 12 13 12 11 11 13 14 13 14 14 12 12 12 10 9 18 18 12 10 10 10 11 11 11 11 10 10 10
2 2 2 2 3 4 4 5 6 7 8 9 10 11 11 11 12 13 13 10 9 11 12 13 14 13 11 11 11 9 9 12 19 14 10 11 11 11 11 10 11 10 10 11
4 3 3 3 3 5 6 7 7 8 9 10 11 11 11 12 13 15 14 12 11 10 10 12 12 11 10 10 9 8 9 9 10 11 11 11 11 10 10 11 11 12 10 10
1 1 3 4 5 5 6 8 9 9 10 10 11 12 12 12 12 13 12 11 12 14 11 8 17 14 10 12 15 8 9 11 11 11 10 14 13 10 10 11 11 10 10 9
3 3 5 6 6 6 8 9 10 10 10 10 10 12 13 13 11 11 11 10 10 10 11 13 12 9 9 11 17 9 9 11 12 12 11 10 11 11 10 10 10 10 9 8
6 6 7 8 9 9 9 10 10 12 12 10 10 12 14 14 11 10 10 12 10 9 10 16 10 8 9 13 17 9 9 10 11 11 11 11 11 11 11 10 9 9 9 8
6 7 9 9 10 11 10 9 10 11 12 12 12 12 12 13 12 10 9 10 10 14 11 7 6 12 18 20 9 8 9 10 11 10 10 10 10 11 10 10 9 8 7 6
8 8 9 10 11 12 12 10 10 11 12 13 13 13 13 12 9 9 11 7 7 14 11 6 14 23 26 13 7 9 10 11 11 11 10 10 10 10 10 9 8 8 7 6
9 9 10 10 9 10 13 13 11 10 11 12 11 12 11 10 8 7 8 13 17 18 9 13 22 24 22 8 8 9 9 10 10 10 10 10 9 9 8 8 7 7 6 6
9 10 10 10 10 10 11 12 11 10 10 9 10 10 9 7 8 8 8 9 14 16 8 12 21 22 13 8 9 9 9 10 12 12 10 9 9 8 8 7 6 6 5 4
9 9 9 9 9 9 9 8 9 9 8 9 9 7 7 6 7 8 7 8 10 15 10 8 9 12 8 8 9 10 10 11 12 10 10 9 9 8 7 6 6 5 4 3
9 8 8 8 8 7 7 8 9 9 8 9 10 8 7 7 7 7 8 7 8 8 7 7 7 7 8 8 9 10 10 9 10 10 9 8 8 7 6 6 4 4 3 2
Wind_Direction
244 244 233 239 246 234 217 212 226 241 242 257 261 224 165 78 22 30 13 353 333 317 306 305 305 304 304 304 305 307 307 305 298 295 294 292 289 286 282 279 276 274 275 274
279 277 279 274 260 247 237 226 232 254 268 270 121 118 98 52 51 26 342 321 314 309 308 307 306 305 308 306 305 308 306 301 298 299 299 296 292 288 285 281 278 276 273 273
263 307 345 280 254 232 223 220 205 225 229 126 102 93 81 117 81 330 305 300 302 303 300 300 300 302 303 299 304 307 302 299 299 299 298 294 292 290 286 283 279 277 275 273
210 358 250 246 241 225 216 266 135 121 116 125 166 246 222 173 207 298 294 296 299 299 299 299 300 302 300 301 305 304 301 298 298 298 295 293 291 289 287 282 280 280 278 275
157 223 275 289 281 215 169 160 106 129 139 169 257 312 284 217 263 279 285 288 286 288 288 295 300 301 304 305 305 302 300 297 296 294 295 295 293 290 287 285 284 280 278 278
154 196 245 253 265 305 88 213 200 142 151 193 79 349 277 271 302 297 298 296 296 301 301 304 304 307 308 306 305 302 299 296 294 292 293 294 293 292 290 286 285 285 282 277
174 217 260 254 255 130 192 235 171 153 171 192 208 228 250 281 285 282 287 290 297 302 301 298 301 307 304 303 300 298 296 295 293 291 290 292 292 291 292 291 289 288 286 283
163 200 251 249 145 163 196 158 155 179 213 235 243 258 271 277 278 288 294 297 301 301 299 298 300 303 302 301 299 299 297 295 294 292 291 296 294 295 292 291 292 292 291 290
190 209 230 119 128 137 142 153 188 218 240 247 257 266 276 278 284 288 290 292 294 295 297 297 295 293 296 300 302 303 301 297 295 294 290 289 291 295 296 292 291 293 292 292
224 254 177 135 127 132 161 185 217 233 248 250 261 273 280 281 285 289 291 294 295 299 301 304 302 294 286 294 300 301 301 300 298 298 298 293 288 288 291 292 291 291 292 292
239 253 137 161 182 194 197 201 221 249 250 255 265 276 277 282 286 286 289 289 290 292 296 300 303 301 295 294 298 299 299 298 298 295 296 298 293 288 291 282 284 292 291 290
226 221 183 209 200 188 180 242 267 277 285 279 265 272 281 281 280 283 288 291 294 293 294 299 302 302 303 300 296 298 303 303 300 298 297 297 299 299 294 293 296 296 295 294
200 175 175 197 186 185 248 270 271 270 275 288 287 278 281 283 283 286 289 292 291 292 294 297 300 302 304 303 300 297 297 301 300 297 298 300 300 301 303 302 298 297 296 297
158 143 162 179 217 274 283 286 292 293 285 276 277 284 285 284 286 288 287 287 288 290 294 296 299 301 304 304 302 298 297 300 302 297 296 296 296 296 297 300 304 301 297 298
173 165 186 217 275 315 320 316 312 303 295 292 286 286 285 286 288 288 288 289 290 290 292 296 299 301 304 303 301 299 299 297 295 293 294 294 295 295 295 295 295 297 299 299
209 172 183 264 300 308 317 314 299 291 290 288 290 286 282 280 283 287 288 286 287 292 297 298 296 297 301 301 298 297 294 301 308 304 299 297 296 296 296 296 297 296 297 298
213 242 253 269 288 295 291 281 273 276 282 283 281 282 285 286 289 290 289 284 276 279 286 289 290 293 295 293 294 295 294 298 304 305 297 296 296 296 295 296 295 294 294 295
203 211 218 235 259 280 288 285 279 278 275 275 281 285 285 286 289 293 295 296 295 289 282 278 283 293 290 292 294 292 293 295 295 296 297 298 299 296 295 294 294 294 296 298
200 262 278 279 272 269 271 276 277 275 275 279 281 283 283 283 283 286 291 295 298 299 295 285 302 306 295 295 304 295 294 297 300 300 299 301 303 296 294 294 295 296 300 302
328 312 299 289 281 269 269 273 276 278 277 275 277 282 286 286 284 285 287 284 277 276 285 294 297 290 291 294 304 297 299 302 304 304 302 300 299 298 297 296 297 300 301 298
303 294 289 284 282 278 273 274 278 282 284 281 277 279 284 288 286 283 286 291 286 277 285 299 304 297 297 304 310 305 304 304 304 303 301 301 301 300 299 300 301 302 301 302
287 283 283 283 284 285 282 276 275 278 283 283 280 278 282 287 287 282 270 273 284 295 301 290 290 302 312 317 311 305 304 303 302 300 299 300 301 302 303 304 305 307 306 304
279 279 281 282 282 284 287 284 277 275 278 279 280 281 280 281 284 287 291 284 283 299 306 291 304 314 319 321 307 303 302 302 302 300 299 301 302 303 304 306 307 306 304 304
281 281 279 280 282 284 286 286 282 276 274 276 275 273 275 282 282 269 269 290 301 307 304 302 313 318 323 317 302 301 302 302 300 299 300 300 300 302 303 306 306 307 308 308
276 278 279 281 281 280 280 285 288 285 281 279 275 271 267 264 270 281 282 284 295 306 301 305 313 318 317 301 301 303 303 301 302 304 302 303 303 303 302 302 301 304 307 308
278 279 279 274 272 277 281 283 285 286 286 288 287 279 273 270 270 275 280 281 283 297 301 297 298 305 303 301 302 304 303 304 306 303 300 302 302 300 299 299 301 303 305 307
280 279 280 282 278 271 272 277 281 284 285 286 290 289 284 282 281 281 282 284 286 288 290 291 293 295 298 300 303 303 303 302 302 302 302 301 299 299 299 298 298 299 302 303